Date,TemperatureHighF,TemperatureAvgF,TemperatureLowF,DewpointHighF,DewpointAvgF,DewpointLowF,HumidityHigh,HumidityAvg,HumidityLow,PressureMaxIn,PressureMinIn,WindSpeedMaxMPH,WindSpeedAvgMPH,GustSpeedMaxMPH,PrecipitationSumIn
2013-7-12,69,68,63,63,61,59,90,80,74,30.11,30.04,10,5,17,0.00
2013-7-13,75,66,60,70,64,59,99,94,80,30.23,30.09,7,2,11,0.01
2013-7-14,86,73,63,73,67,63,100,83,57,30.30,30.22,4,1,9,0.01
2013-7-15,89,76,66,75,69,65,98,80,56,30.26,30.16,6,1,10,0.00
2013-7-16,87,76,67,72,69,63,99,80,48,30.24,30.14,6,2,13,0.00
2013-7-17,91,77,66,74,70,65,99,81,54,30.21,30.05,5,1,9,0.00
2013-7-18,93,77,68,73,69,63,96,79,46,30.08,29.95,10,1,21,0.00
2013-7-19,90,78,67,74,69,66,97,77,52,29.96,29.76,4,1,11,0.00
2013-7-20,81,74,69,70,65,-100,89,76,57,29.82,29.70,7,2,13,0.00
2013-7-21,85,71,62,69,64,61,99,81,51,29.92,29.82,6,1,10,0.00
2013-7-22,82,68,60,70,65,59,99,89,63,29.92,29.72,5,2,10,0.24
2013-7-23,80,70,63,68,65,60,99,87,56,29.72,29.58,6,2,14,0.07
2013-7-24,68,62,53,61,55,49,96,78,58,29.97,29.64,8,4,18,0.02
2013-7-25,72,58,46,54,50,45,98,76,48,30.08,29.97,7,3,13,0.00
2013-7-26,79,62,48,56,52,47,98,74,43,30.10,29.98,5,2,8,0.00
2013-7-27,72,65,53,66,61,52,98,88,73,30.01,29.84,7,2,18,0.06
2013-7-28,79,67,60,64,60,54,98,80,42,29.94,29.82,5,2,12,0.22
2013-7-29,72,62,53,55,52,48,94,71,49,30.12,29.95,4,1,10,0.05
2013-7-30,74,62,52,58,54,50,95,76,55,30.19,30.11,3,0,11,0.00
2013-7-31,78,64,53,62,57,52,99,80,49,30.14,29.94,4,1,6,0.00